Weather History for KGCN - December, 2013

Change the Weather History Date:

Monday, December 9, 2013

  Actual Average Record
Temperature  
Mean Temperature 1 °F -  
Max Temperature 24 °F 42 °F 60 °F (1977)
Min Temperature -22 °F 14 °F -22 °F (2013)
Degree Days  
Heating Degree Days 64    
Moisture  
Dew Point -14 °F    
Average Humidity 54    
Maximum Humidity 83    
Minimum Humidity 19    
Precipitation  
Precipitation 0.00 in - - ()
Sea Level Pressure  
Sea Level Pressure 30.51 in    
Wind  
Wind Speed 4 mph (ENE)    
Max Wind Speed 15 mph    
Max Gust Speed -    
Visibility 10 miles    
Events      
Averages and records for this station are not official NWS values.
T = Trace of Precipitation, MM = Missing Value Source: NWS Daily Summary

Daily Weather History Graph

Daily Weather History Graph

Search for Another Location

Airport or City:

Trip Planner

Search our weather history database for the weather conditions in past years. The results will help you decide how hot, cold, wet, or windy it might be!

Date:

Astronomy

Dec. 09, 2013 Rise Set
Actual Time 7:27 AM MST 5:14 PM MST
Civil Twilight 6:59 AM MST 5:43 PM MST
Nautical Twilight 6:27 AM MST 6:14 PM MST
Astronomical Twilight 5:56 AM MST 6:46 PM MST
Moon 12:34 PM MST (12/9) No Moon Set
Length of Visible Light 10h 43m
Length of Day
9h 46m
First Quarter, 52% of the Moon is Illuminated
Dec 9
First Quarter
Dec 17
Full
Dec 25
Last Quarter
Jan 1
New
Jan 7
First Quarter

Hourly Weather History & Observations

Time (MST) Temp. Windchill Dew Point Humidity Pressure Visibility Wind Dir Wind Speed Gust Speed Precip Events Conditions
12:54 AM -15.0 °F - -20.9 °F 75% 30.28 in 10.0 mi Calm Calm - N/A   Clear
1:54 AM -16.1 °F - -22.0 °F 74% 30.28 in 10.0 mi Calm Calm - N/A   Clear
2:54 AM -17.0 °F -27.2 °F -24.0 °F 70% 30.30 in 10.0 mi ENE 3.5 mph - N/A   Clear
3:54 AM -18.0 °F - -24.0 °F 74% 30.31 in 10.0 mi Calm Calm - N/A   Clear
4:54 AM -20.0 °F -33.3 °F -26.0 °F 74% 30.34 in 10.0 mi NE 4.6 mph - N/A   Clear
5:54 AM -18.9 °F - -25.1 °F 74% 30.39 in 10.0 mi Calm Calm - N/A   Clear
6:54 AM -22.0 °F - -27.9 °F 74% 30.51 in 10.0 mi Calm Calm - N/A   Clear
7:54 AM -18.0 °F -28.5 °F -24.0 °F 74% 30.59 in 10.0 mi ENE 3.5 mph - N/A   Clear
8:54 AM -7.1 °F - -11.0 °F 83% 30.56 in 10.0 mi Calm Calm - N/A   Clear
9:54 AM 17.1 °F 6.6 °F -0.9 °F 45% 30.48 in 10.0 mi NE 8.1 mph - N/A   Clear
10:54 AM 17.1 °F 2.5 °F -2.0 °F 43% 30.53 in 10.0 mi ENE 15.0 mph - N/A   Clear
11:54 AM 19.9 °F 9.3 °F -0.9 °F 40% 30.54 in 10.0 mi NE 9.2 mph - N/A   Clear
12:54 PM 21.0 °F 11.4 °F -2.0 °F 36% 30.53 in 10.0 mi ENE 8.1 mph - N/A   Clear
1:54 PM 24.1 °F 15.2 °F -2.0 °F 32% 30.52 in 10.0 mi NE 8.1 mph - N/A   Clear
2:54 PM 24.1 °F 13.1 °F -11.0 °F 21% 30.54 in 10.0 mi NE 11.5 mph - N/A   Clear
3:54 PM 21.9 °F 9.8 °F -15.0 °F 19% 30.56 in 10.0 mi NE 12.7 mph - N/A   Clear
4:54 PM 19.0 °F 5.0 °F -14.1 °F 22% 30.61 in 10.0 mi NE 15.0 mph - N/A   Clear
5:54 PM 16.0 °F 7.4 °F -15.0 °F 24% 30.63 in 10.0 mi East 5.8 mph - N/A   Clear
6:54 PM 12.9 °F 0.7 °F -7.1 °F 41% 30.67 in 10.0 mi NE 9.2 mph - N/A   Clear
7:54 PM 10.0 °F 1.8 °F -7.1 °F 46% 30.67 in 10.0 mi NE 4.6 mph - N/A   Clear
8:54 PM 3.0 °F - -8.0 °F 60% 30.67 in 10.0 mi Calm Calm - N/A   Clear
9:54 PM -4.0 °F -12.4 °F -11.9 °F 69% 30.61 in 10.0 mi NE 3.5 mph - N/A   Clear
10:54 PM -0.9 °F -11.0 °F -9.9 °F 66% 30.61 in 10.0 mi ENE 4.6 mph - N/A   Clear
11:54 PM -5.1 °F -13.6 °F -13.0 °F 69% 30.60 in 10.0 mi East 3.5 mph - N/A   Clear